Location: Boiro
(42.6475°N, 8.8834°W)
Time: 18:16:23
(UTC+01:00)

Tiros 1 despin weight - Pass Details

Date: 30 November 2021
Orbit: 592 x 641 km, 48.2° (Epoch: 20 January)

Event Time Altitude Azimuth Distance (km) Brightness Sun altitude
Rises 18:37:34 0° 280° (W) 2,823 ? -6.5°
Reaches altitude 10° 18:39:58 10° 288° (WNW) 1,921 ? -6.9°
Maximum altitude 18:44:06 39° 358° (N) 889 ? -7.6°
Enters shadow 18:48:11 11° 68° (ENE) 1,899 ? -8.3°
Drops below altitude 10° 18:48:16 10° 69° (ENE) 1,931 - -8.3°
Sets 18:50:41 0° 77° (ENE) 2,839 - -8.7°
